Weather History for Tampa Macdill AFB, FL

Change the Weather History Date:

Monday, November 4, 2013

  Actual Average Record
Temperature  
Mean Temperature 68 °F -  
Max Temperature 80 °F 78 °F 87 °F (2003)
Min Temperature 57 °F 61 °F 48 °F (1999)
Cooling Degree Days 4    
Growing Degree Days 18 (Base 50)    
Moisture  
Dew Point 60 °F    
Average Humidity 73    
Maximum Humidity 94    
Minimum Humidity 49    
Precipitation  
Precipitation 0.00 in - - ()
Sea Level Pressure  
Sea Level Pressure 30.15 in    
Wind  
Wind Speed 13 mph (ENE)    
Max Wind Speed 23 mph    
Max Gust Speed 29 mph    
Visibility 10 miles    
Events Rain    
Averages and records for this station are not official NWS values.
T = Trace of Precipitation, MM = Missing Value Source: NWS Daily Summary

Daily Weather History Graph

Daily Weather History Graph

Search for Another Location

Airport:

Trip Planner

Search our weather history database for the weather conditions in past years. The results will help you decide how hot, cold, wet, or windy it might be!

Date:

Astronomy

Nov. 04, 2013 Rise Set
Actual Time 6:43 AM EST 5:43 PM EST
Civil Twilight 6:19 AM EST 6:07 PM EST
Nautical Twilight 5:51 AM EST 6:35 PM EST
Astronomical Twilight 5:23 AM EST 7:03 PM EST
Moon 7:47 AM EST (11/4) 6:53 PM EST (11/4)
Length of Visible Light 11h 48m
Length of Day
11h 00m
New Moon, 2% of the Moon is Illuminated
Nov 4
New Moon
Nov 10
First Quarter
Nov 17
Full
Nov 25
Last Quarter
Dec 2
New

Hourly Weather History & Observations

Time (EST) Temp. Heat Index Dew Point Humidity Pressure Visibility Wind Dir Wind Speed Gust Speed Precip Events Conditions
12:58 AM 59.4 °F - 52.0 °F 77% 30.13 in 10.0 mi NNE 8.1 mph - N/A   Clear
1:58 AM 58.8 °F - 53.6 °F 83% 30.12 in 10.0 mi NE 12.7 mph - N/A   Clear
2:58 AM 57.9 °F - 53.1 °F 84% 30.13 in 10.0 mi NNE 6.9 mph - N/A   Partly Cloudy
3:58 AM 58.5 °F - 54.9 °F 88% 30.12 in 10.0 mi NNE 6.9 mph - N/A   Overcast
4:58 AM 59.5 °F - 55.4 °F 86% 30.12 in 10.0 mi North 12.7 mph - N/A   Clear
5:58 AM 60.4 °F - 55.6 °F 84% 30.14 in 10.0 mi NE 10.4 mph - N/A   Clear
6:58 AM 62.8 °F - 56.5 °F 80% 30.15 in 10.0 mi NE 11.5 mph - N/A   Overcast
7:58 AM 64.4 °F - 57.4 °F 78% 30.16 in 10.0 mi ENE 9.2 mph - N/A   Overcast
8:58 AM 67.8 °F - 59.2 °F 74% 30.17 in 10.0 mi ENE 13.8 mph - N/A   Overcast
9:58 AM 70.3 °F - 60.4 °F 71% 30.17 in 10.0 mi ENE 16.1 mph - N/A   Overcast
10:58 AM 72.9 °F - 61.5 °F 67% 30.17 in 10.0 mi East 16.1 mph - N/A   Overcast
11:41 AM 75.2 °F - 60.8 °F 61% 30.15 in 10.0 mi East 18.4 mph - N/A Rain Light Rain
11:50 AM 77.0 °F - 60.8 °F 57% 30.15 in 10.0 mi East 21.9 mph 26.5 mph N/A   Overcast
11:58 AM 76.1 °F - 60.4 °F 58% 30.16 in 10.0 mi East 17.3 mph - 0.00 in   Overcast
12:58 PM 78.6 °F - 60.1 °F 53% 30.13 in 10.0 mi East 19.6 mph 23.0 mph N/A   Scattered Clouds
1:58 PM 80.8 °F 81.4 °F 59.7 °F 49% 30.11 in 10.0 mi East 23.0 mph 28.8 mph N/A   Scattered Clouds
2:57 PM 79.2 °F - 60.4 °F 53% 30.11 in 10.0 mi East 19.6 mph - N/A   Scattered Clouds
3:58 PM 77.9 °F - 59.7 °F 53% 30.12 in 10.0 mi East 15.0 mph - N/A   Overcast
4:58 PM 75.4 °F - 59.7 °F 58% 30.13 in 10.0 mi ENE 19.6 mph 24.2 mph N/A   Overcast
5:58 PM 73.2 °F - 61.3 °F 66% 30.14 in 10.0 mi ENE 16.1 mph - N/A   Overcast
6:58 PM 72.1 °F - 62.4 °F 71% 30.15 in 10.0 mi ENE 15.0 mph - N/A   Overcast
7:58 PM 70.9 °F - 62.6 °F 75% 30.17 in 10.0 mi NE 16.1 mph - N/A   Mostly Cloudy
8:58 PM 69.6 °F - 63.0 °F 79% 30.17 in 10.0 mi NE 10.4 mph - N/A   Clear
9:58 PM 68.5 °F - 63.7 °F 84% 30.17 in 10.0 mi ENE 17.3 mph - N/A   Clear
10:58 PM 68.5 °F - 64.2 °F 86% 30.17 in 10.0 mi ENE 15.0 mph - N/A   Partly Cloudy
11:54 PM 68.0 °F - 66.2 °F 94% 30.17 in 9.0 mi East 19.6 mph 28.8 mph N/A   Light Drizzle
11:58 PM 68.7 °F - 65.8 °F 90% 30.18 in 8.0 mi East 12.7 mph 28.8 mph 0.00 in   Light Drizzle